Weather History for KGRR - October, 2013

Change the Weather History Date:

Monday, October 28, 2013

  Actual Average Record
Temperature  
Mean Temperature 40 °F 47 °F  
Max Temperature 48 °F 56 °F 74 °F (1989)
Min Temperature 32 °F 38 °F 23 °F (1965)
Degree Days  
Heating Degree Days 25 18  
Month to date heating degree days 333 383  
Since 1 July heating degree days 471 535  
Cooling Degree Days 0 0  
Month to date cooling degree days 14 4  
Year to date cooling degree days 767 696  
Moisture  
Dew Point 32 °F    
Average Humidity 73    
Maximum Humidity 85    
Minimum Humidity 60    
Precipitation  
Precipitation 0.00 in 0.11 in 0.84 in (1899)
Month to date precipitation 3.91 2.94  
Year to date precipitation 37.48 31.94  
Snow  
Snow 0.00 in 0.10 in 3.50 in (1925)
Month to date snowfall T 0.4  
Since 1 July snowfall T 0.4  
Since 1 September snowfall T 0.4  
Snow Depth 0.00 in    
Sea Level Pressure  
Sea Level Pressure 30.28 in    
Wind  
Wind Speed 8 mph (ENE)    
Max Wind Speed 18 mph    
Max Gust Speed 21 mph    
Visibility 10 miles    
Events      
T = Trace of Precipitation, MM = Missing Value Source: NWS Daily Summary

Daily Weather History Graph

Daily Weather History Graph

Search for Another Location

Airport or City:

Trip Planner

Search our weather history database for the weather conditions in past years. The results will help you decide how hot, cold, wet, or windy it might be!

Date:

Astronomy

Oct. 28, 2013 Rise Set
Actual Time 8:11 AM EDT 6:39 PM EDT
Civil Twilight 7:42 AM EDT 7:08 PM EDT
Nautical Twilight 7:09 AM EDT 7:41 PM EDT
Astronomical Twilight 6:36 AM EDT 8:14 PM EDT
Moon 1:55 AM EDT (10/28) 3:28 PM EDT (10/28)
Length of Visible Light 11h 26m
Length of Day
10h 27m
Waning Crescent, 34% of the Moon is Illuminated
Oct 28
Waning Crescent
Nov 3
New
Nov 10
First Quarter
Nov 17
Full
Nov 25
Last Quarter

Hourly Weather History & Observations

Time (EDT) Temp. Windchill Dew Point Humidity Pressure Visibility Wind Dir Wind Speed Gust Speed Precip Events Conditions
12:53 AM 41.0 °F 39.0 °F 32.0 °F 70% 30.06 in 10.0 mi SSW 3.5 mph - N/A   Clear
1:53 AM 39.0 °F 36.8 °F 32.0 °F 76% 30.07 in 10.0 mi SW 3.5 mph - N/A   Clear
2:53 AM 37.0 °F 34.5 °F 30.9 °F 79% 30.08 in 10.0 mi SSW 3.5 mph - N/A   Clear
3:53 AM 35.1 °F - 30.0 °F 82% 30.10 in 10.0 mi Calm Calm - N/A   Clear
4:53 AM 33.1 °F 30.0 °F 28.9 °F 85% 30.12 in 10.0 mi NNE 3.5 mph - N/A   Clear
5:53 AM 32.0 °F 28.7 °F 28.9 °F 88% 30.15 in 10.0 mi ESE 3.5 mph - N/A   Scattered Clouds
6:53 AM 37.0 °F 33.3 °F 32.0 °F 82% 30.18 in 10.0 mi NE 4.6 mph - N/A   Mostly Cloudy
7:53 AM 37.9 °F 32.7 °F 33.1 °F 83% 30.21 in 10.0 mi ENE 6.9 mph - N/A   Mostly Cloudy
8:53 AM 37.0 °F 33.3 °F 33.1 °F 86% 30.25 in 10.0 mi NE 4.6 mph - N/A   Mostly Cloudy
9:53 AM 42.1 °F 39.2 °F 36.0 °F 79% 30.29 in 10.0 mi ENE 4.6 mph - N/A   Mostly Cloudy
10:53 AM 45.0 °F 38.5 °F 35.1 °F 68% 30.32 in 10.0 mi ENE 13.8 mph - N/A   Mostly Cloudy
11:00 AM 44.6 °F 37.8 °F 35.6 °F 71% 30.30 in 10.0 mi ENE 15.0 mph - N/A   Mostly Cloudy
11:53 AM 46.0 °F 41.0 °F 34.0 °F 63% 30.34 in 10.0 mi East 10.4 mph - N/A   Mostly Cloudy
12:53 PM 46.9 °F - 35.1 °F 63% 30.35 in 10.0 mi NE 13.8 mph - N/A   Overcast
1:53 PM 46.0 °F 41.0 °F 34.0 °F 63% 30.35 in 10.0 mi ENE 10.4 mph - N/A   Overcast
2:53 PM 45.0 °F 40.1 °F 34.0 °F 65% 30.35 in 10.0 mi NE 9.2 mph - N/A   Overcast
3:53 PM 46.0 °F 39.9 °F 34.0 °F 63% 30.35 in 10.0 mi NE 13.8 mph - N/A   Overcast
4:12 PM 44.6 °F 38.4 °F 33.8 °F 66% 30.33 in 10.0 mi ENE 12.7 mph - N/A   Overcast
4:53 PM 45.0 °F 38.9 °F 34.0 °F 65% 30.36 in 10.0 mi NE 12.7 mph - N/A   Overcast
5:53 PM 44.1 °F 38.6 °F 33.1 °F 65% 30.36 in 10.0 mi ENE 10.4 mph - N/A   Scattered Clouds
6:53 PM 41.0 °F 35.2 °F 30.9 °F 67% 30.37 in 10.0 mi NE 9.2 mph - N/A   Scattered Clouds
7:53 PM 39.0 °F 33.4 °F 30.0 °F 70% 30.39 in 10.0 mi ENE 8.1 mph - N/A   Scattered Clouds
8:53 PM 37.9 °F 32.1 °F 30.0 °F 73% 30.40 in 10.0 mi NE 8.1 mph - N/A   Partly Cloudy
9:53 PM 39.0 °F 33.4 °F 30.9 °F 73% 30.40 in 10.0 mi ENE 8.1 mph - N/A   Overcast
10:53 PM 39.9 °F 32.9 °F 30.0 °F 68% 30.42 in 10.0 mi ENE 11.5 mph - N/A   Overcast
11:53 PM 39.9 °F 33.4 °F 28.9 °F 65% 30.43 in 10.0 mi ENE 10.4 mph - N/A   Overcast